sat.trackr.live / text

‹ back to catalog

STARLINK-30548

NORAD 58046 · 2023-156U

PAYLOAD ACTIVE UNKNOWN

§ Identity

Operator
Country
US
Launch date
2023-10-09
Launch site
AFWTR
Launch vehicle
Mass (kg)
RCS (m²)

Purposes: comms

External: N2YO · Heavens-Above · Gunter

§ Orbital elements

Epoch: 2026-05-25T01:52:33.748032Z

Period
93.85 min
Inclination
53.1602°
Eccentricity
0.0000943
Mean motion
15.34389985 rev/d
Perigee alt
462.1 km
Apogee alt
463.4 km
Semi-major
6,840.9 km
B*
2.9592e-5
RAAN
172.9882°
Arg perigee
78.7536°
Mean anomaly
281.3573°
Rev number
14,668

§ Raw data

STARLINK-305481 58046U 23156U   26145.07816838  .00000624  00000+0  29592-4 0  99912 58046  53.1602 172.9882 0000943  78.7536 281.3573 15.34389985146680

JSON: /api/v1/satellites/58046 · /tle

For live sub-satellite position, see the globe view (requires WebGL).

§ Visibility from observer

Set your observer location to see the next 7 days of passes ≥ 10°. The values pass through the URL so the page stays shareable.

No JS? Fill the form by hand. The geolocation button needs JavaScript.